Find Kineis-1B

NORAD ID: 60079 Int'l Des: 2024-114 Owner: KINEIS Country: F operational
LEOCIRCULARRETROGRADESSO

当前视图

正在加载3D地球...

关于 Kineis-1B

正在加载描述...

即将过境

Passes for default location (London). Set your location on the main map for personalized predictions.

高度历史

Loading altitude history...

两行轨道根数

1 60079U 24114A 26150.14307860 .00001069 00000-0 14621-3 0 9990
2 60079 97.9831 174.4158 0003466 131.9716 228.1792 14.80590990104739
Epoch: May 30, 2026 • Age: 9 hours

当前状态

高度 656.4 km
速度 7.53 km/s
星下点 -72.68°S, 120.88°E
发射日期 Jun 20, 2024
运行时间 1.9 years
类型 other

技术详情

分类 Payload
质量 28.00 kg
干质量 28.00 kg
总质量 28.00 kg
长度 0.40 m
直径 0.20 m
跨度 1.60 m
形状 Box+ 2 pan + ant
制造商 KINEIS
平台类型 Cubesat 16U
阶段状态 In Orbit
所有者/国家 KINEIS/F

Most Searched